Regional Weather Roundup
Issued by NWS State College, PA

Home | Current Version | Previous Version | Text Only | Print | Product List | Glossary Off
Versions: 1 2 3 4 5 6 7 8 9 10 11 12 13 14 15 16 17 18 19 20 21 22 23 24 25 26 27 28 29 30 31 32 33 34 35 36 37 38 39 40 41 42 43 44 45 46 47 48 49 50

000
ASUS41 KCTP 170403
RWRCTP

REGIONAL WEATHER ROUNDUP
NATIONAL WEATHER SERVICE STATE COLLEGE PA
1100 PM EST MON JAN 16 2017

Note: "fair" indicates few or no clouds below 12,000 feet with no
significant weather and/or obstructions to visibility.

* = STATION THAT DOES NOT REPORT PRECIPITATION /E.G. RAIN...SNOW...ETC/
    THUNDER OR FOG.

PAZ002>004-007>009-013>016-020>023-029>032-170500-
WESTERN PENNSYLVANIA

CITY           SKY/WX    TMP DP  RH WIND       PRES   REMARKS
ERIE           CLOUDY    36  31  82 SE3       30.18F
MEADVILLE      CLOUDY    37  29  72 SE5       30.16F
FRANKLIN*        N/A     34  30  86 E5        30.18F
NEW CASTLE     CLOUDY    36  35  96 CALM      30.17F
BEAVER COUNTY  NOT AVBL
BUTLER*        CLOUDY    37  34  87 E5        30.19F
PITTSBURGH INT CLOUDY    37  36  96 SE5       30.16F
PITTSBURGH     CLOUDY    39  35  86 S3        30.16F FOG
INDIANA*       CLOUDY    39  39 100 E3        30.20F
LATROBE        FOG       36  36 100 CALM      30.17F VSB 1/4
WASHINGTON CO* CLOUDY    37  36  93 CALM      30.16F
$$

PAZ004>006-010>012-017>019-024>028-033>037-041-042-045-046-049>053-170500-
CENTRAL PENNSYLVANIA

CITY           SKY/WX    TMP DP  RH WIND       PRES   REMARKS
BRADFORD       CLOUDY    35  28  75 SE3       30.17F
DUBOIS         CLOUDY    36  28  73 SE7       30.17F
CLEARFIELD     CLOUDY    34  28  79 N3        30.21F
JOHNSTOWN      FOG       37  37 100 SW5       30.16F VSB 1/4
ALTOONA        CLOUDY    35  33  92 CALM      30.23F FOG
STATE COLLEGE  CLOUDY    33  29  86 CALM      30.24F
WILLIAMSPORT   CLOUDY    35  27  72 SE3       30.29S
SELINSGROVE    CLOUDY    34  29  82 S3        30.30F
FT INDIANTOWN  CLOUDY    34  33  97 CALM      30.30F
CAPITAL CITY   CLOUDY    36  27  69 SE3       30.30F
HARRISBURG     CLOUDY    36  29  75 SE3       30.30F
YORK           CLOUDY    36  32  85 CALM      30.29F
$$

PAZ038>040-043-044-047-048-054-055-060>062-067>071-170500-
EASTERN PENNSYLVANIA

CITY           SKY/WX    TMP DP  RH WIND       PRES   REMARKS
SCRANTON       CLOUDY    35  27  72 SW5       30.26F
MOUNT POCONO   CLOUDY    32  25  75 W8        30.22F
ALLENTOWN      CLOUDY    37  25  61 SW5       30.31S
QUAKERTOWN*    CLOUDY    36  25  64 W5        30.32F
READING        CLOUDY    36  24  62 CALM      30.31F
LANCASTER      CLOUDY    35  30  82 E5        30.31F
COATESVILLE    CLOUDY    36  27  69 CALM      30.32F
POTTSTOWN      CLOUDY    36  25  64 CALM      30.34S
BLUE BELL      CLOUDY    36  27  69 CALM      30.32S
DOYLESTOWN     CLOUDY    38  26  62 SW3       30.32S
WILLOW GROVE   NOT AVBL
NORTH PHILA    CLOUDY    40  26  57 SW5       30.35F
PHILADELPHIA   CLOUDY    38  28  67 W6        30.34F
$$




USA.gov is the U.S. government's official web portal to all federal, state and local government web resources and services.